[[{"header":{"parameterUnit":"m.s-1","parameterCategory":1,"la1":30.2991,"la2":30.254,"lo1":-89.0895,"lo2":-89.0444,"dx":0.0017,"dy":0.0017,"nx":28,"ny":28,"refTime":"2022-11-30T15:00:00:Z","depth":0,"parameterNumber":2,"parameterNumberName":"U-component_of_WINDS"},"data":[0,0,0,0,0,0,0,0,0,0,0,0,0,0,0,0,0,0,0,0,0,0,0,0,0,0,0,0,0,0,0,0,0,0,0,0,0,0,0,0,0,0,0,0,0,0,0,0,0,0,0,0,0,0,0,0,0,0,-0.0103,-0.0104,0,-0.0139,-0.014,-0.014,-0.0134,-0.0133,-0.0133,-0.0132,-0.0173,-0.0174,-0.0176,0,0,0,0,0,0,0,0,0,0,0,0,0,-0.0031,-0.0032,-0.0103,-0.0104,-0.0104,-0.0139,-0.014,-0.014,-0.0134,-0.0133,-0.0132,-0.0132,-0.0172,-0.0174,-0.0176,0,0,0,0,0,0,0,0,0,0,0,0,0,-0.0064,-0.0032,-0.0103,-0.0105,-0.0106,-0.0139,-0.014,-0.0141,-0.0134,-0.0133,-0.0132,-0.0131,-0.0172,-0.0174,-0.0177,-0.0212,0,0,-0.0184,-0.0185,0,0,0,0,0,0,0,0,-0.0062,-0.0067,-0.0104,-0.0105,-0.0106,-0.0131,-0.0129,-0.0165,-0.0134,-0.0123,-0.0132,-0.0131,-0.016,-0.0163,-0.0172,-0.0214,-0.0215,-0.0185,-0.0186,-0.0187,-0.0188,0,0,0,0,0,0,0,-0.006,-0.0065,-0.0118,-0.0105,-0.0106,-0.0105,-0.0109,-0.0136,-0.0147,-0.0124,-0.0124,-0.0128,-0.016,-0.017,-0.0173,-0.0216,-0.0184,-0.0187,-0.0188,-0.0189,-0.0287,-0.0288,0,0,0,0,0,0,-0.0057,-0.0063,-0.0117,-0.0119,-0.0081,-0.0107,-0.0111,-0.0124,-0.0146,-0.0149,-0.0129,-0.0128,-0.0166,-0.017,-0.0175,-0.0218,-0.0187,-0.019,-0.0191,-0.0286,-0.0288,-0.0289,0,0,0,0,0,0,-0.0055,-0.0061,-0.0115,-0.0091,-0.0098,-0.0109,-0.0124,-0.0125,-0.0135,-0.015,-0.0152,-0.0137,-0.0166,-0.0171,-0.0202,-0.0219,-0.0191,-0.0193,-0.0285,-0.0287,-0.0288,-0.0303,0,0,0,0,0,0,-0.0053,-0.0061,-0.0074,-0.0091,-0.0099,-0.0141,-0.0125,-0.0127,-0.0139,-0.0138,-0.0158,-0.016,-0.0165,-0.0198,-0.0205,-0.0222,-0.0195,-0.0284,-0.0286,-0.0288,-0.0301,-0.0305,-0.0308,0,0,0,0,0,-0.005,-0.0078,-0.0075,-0.0081,-0.0115,-0.0142,-0.0147,-0.0151,-0.014,-0.0154,-0.0163,-0.016,-0.0215,-0.0202,-0.0209,-0.0227,-0.0283,-0.0285,-0.0287,-0.03,-0.0304,-0.0308,0,0,0,0,0,0,-0.0064,-0.008,-0.0077,-0.0111,-0.0125,-0.0141,-0.0159,-0.0156,-0.0174,-0.0173,-0.0178,-0.0182,-0.0214,-0.0223,-0.0207,-0.0262,-0.0248,-0.0252,-0.0255,-0.0259,-0.0263,-0.0261,-0.0197,0,0,0,0,0,-0.0071,-0.009,-0.0103,-0.0132,-0.0139,-0.0147,-0.0159,-0.0161,-0.0176,-0.0183,-0.0195,-0.0211,-0.0232,-0.0246,-0.0266,-0.0302,-0.0307,-0.0318,-0.0321,-0.0324,-0.0328,-0.0348,-0.0353,-0.0297,-0.0297,-0.0297,0,0,-0.0085,-0.0096,-0.0109,-0.0135,-0.0146,-0.0167,-0.0153,-0.0176,-0.0192,-0.0187,-0.0217,-0.0225,-0.0244,-0.0277,-0.0293,-0.0286,-0.0344,-0.0327,-0.0329,-0.0332,-0.0351,-0.0356,-0.0361,-0.0298,-0.0298,-0.0298,0,0,-0.0123,-0.0133,-0.0157,-0.0168,-0.0185,-0.019,-0.0196,-0.0212,-0.0217,-0.0247,-0.0243,-0.0262,-0.0298,-0.0311,-0.0323,-0.0363,-0.036,-0.0369,-0.0388,-0.0407,-0.0412,-0.0416,-0.043,-0.0436,-0.0372,-0.0372,-0.0372,0,-0.0139,-0.017,-0.0171,-0.0193,-0.0205,-0.0199,-0.0225,-0.0236,-0.0259,-0.0267,-0.0259,-0.0303,-0.0315,-0.0352,-0.0361,-0.037,-0.0378,-0.0368,-0.0411,-0.0415,-0.0418,-0.0433,-0.0438,-0.0373,-0.0373,-0.0373,-0.0373,0,-0.0189,-0.021,-0.0228,-0.0249,-0.0262,-0.0286,-0.0291,-0.0305,-0.0304,-0.031,-0.034,-0.0354,-0.0376,-0.0385,-0.0385,-0.0421,-0.0416,-0.0409,-0.0396,-0.0425,-0.0438,-0.0444,-0.0375,-0.0375,-0.0374,-0.0374,0,0,-0.0239,-0.0258,-0.0264,-0.0273,-0.029,-0.0307,-0.033,-0.0351,-0.0363,-0.0378,-0.0398,-0.0428,-0.0421,-0.0433,-0.0435,-0.0451,-0.0482,-0.0442,-0.0443,-0.045,-0.0523,-0.0529,-0.0535,-0.048,-0.0481,-0.0482,-0.0522,0,-0.0278,-0.0319,-0.0319,-0.0357,-0.0376,-0.037,-0.0391,-0.0404,-0.0409,-0.0427,-0.0434,-0.0455,-0.0444,-0.0451,-0.0467,-0.0475,-0.0497,-0.0472,-0.05,-0.0501,-0.0497,-0.0542,-0.0549,-0.0586,-0.0527,-0.0528,-0.0528,0,-0.0331,-0.0346,-0.0385,-0.0398,-0.0406,-0.0424,-0.0443,-0.046,-0.0474,-0.0477,-0.049,-0.0488,-0.0513,-0.0496,-0.053,-0.0513,-0.0524,-0.053,-0.0531,-0.0535,-0.0518,-0.0549,-0.0598,-0.0604,-0.0536,-0.0536,-0.0535,0,-0.0364,-0.0394,-0.0421,-0.0429,-0.0445,-0.0458,-0.0465,-0.0478,-0.049,-0.0506,-0.0514,-0.0533,-0.0544,-0.0559,-0.0562,-0.055,-0.0596,-0.058,-0.06,-0.06,-0.0612,-0.0612,-0.0665,-0.0617,-0.0617,-0.0616,-0.0616,0,-0.0409,-0.0434,-0.0436,-0.0453,-0.048,-0.048,-0.0507,-0.0514,-0.0525,-0.0543,-0.0539,-0.0556,-0.056,-0.0578,-0.0581,-0.0609,-0.0613,-0.0617,-0.0618,-0.0618,-0.0618,-0.0627,-0.0625,-0.0618,-0.0618,-0.0617,-0.0617,0,-0.0452,-0.0455,-0.0484,-0.0495,-0.0498,-0.0518,-0.0528,-0.0544,-0.0548,-0.0572,-0.0577,-0.0584,-0.0605,-0.061,-0.0635,-0.0637,-0.067,-0.0668,-0.0665,-0.0666,-0.0686,-0.0684,-0.0748,-0.0757,-0.0701,-0.0702,-0.0702,0,-0.0482,-0.05,-0.0512,-0.0524,-0.0531,-0.055,-0.0561,-0.0561,-0.0574,-0.059,-0.0605,-0.0625,-0.0641,-0.0675,-0.0683,-0.0702,-0.0701,-0.0722,-0.0704,-0.0704,-0.0703,-0.0702,-0.0704,-0.0726,-0.0727,-0.0727,-0.0728,0,-0.0534,-0.0534,-0.055,-0.0566,-0.058,-0.0593,-0.0606,-0.0616,-0.0617,-0.0632,-0.0652,-0.0665,-0.0689,-0.071,-0.0728,-0.0737,-0.0733,-0.0733,-0.0738,-0.074,-0.0738,-0.074,-0.0676,-0.0732,-0.0731,-0.0731,-0.0731,-0.0731,-0.0572,-0.0587,-0.0598,-0.0616,-0.0625,-0.0637,-0.0652,-0.0657,-0.0674,-0.0694,-0.0693,-0.0716,-0.0728,-0.0753,-0.0762,-0.078,-0.0773,-0.0782,-0.0784,-0.0786,-0.0789,-0.0733,-0.0783,-0.0783,-0.0783,-0.0783,-0.0783,0,-0.0625,-0.0631,-0.0647,-0.0664,-0.0678,-0.0671,-0.0684,-0.0697,-0.0716,-0.0728,-0.0743,-0.0766,-0.0786,-0.0794,-0.0813,-0.0826,-0.0824,-0.0831,-0.0831,-0.0833,-0.0793,-0.0786,-0.0831,-0.0831,-0.0831,-0.0831,-0.0831,-0.0831,-0.0654,-0.068,-0.0681,-0.0711,-0.0717,-0.0739,-0.0747,-0.0757,-0.0766,-0.0792,-0.0808,-0.0812,-0.0822,-0.0841,-0.0859,-0.0861,-0.0868,-0.0876,-0.0877,-0.084,-0.0835,-0.0831,-0.0825,-0.0877,-0.0877,-0.0915,-0.0916,-0.0916]},{"header":{"parameterUnit":"m.s-1","parameterCategory":1,"la1":30.2991,"la2":30.254,"lo1":-89.0895,"lo2":-89.0444,"dx":0.0017,"dy":0.0017,"nx":28,"ny":28,"refTime":"2022-11-30T15:00:00:Z","depth":0,"parameterNumber":3,"parameterNumberName":"V-component_of_WINDS"},"data":[0,0,0,0,0,0,0,0,0,0,0,0,0,0,0,0,0,0,0,0,0,0,0,0,0,0,0,0,0,0,0,0,0,0,0,0,0,0,0,0,0,0,0,0,0,0,0,0,0,0,0,0,0,0,0,0,0,0,-8.5467,-8.5468,0,-8.5638,-8.564,-8.5642,-8.556,-8.5555,-8.5551,-8.5547,-8.5719,-8.5727,-8.5736,0,0,0,0,0,0,0,0,0,0,0,0,0,-8.5064,-8.5072,-8.5466,-8.5469,-8.5471,-8.5638,-8.564,-8.5643,-8.556,-8.5555,-8.555,-8.5545,-8.5716,-8.5726,-8.5737,0,0,0,0,0,0,0,0,0,0,0,0,0,-8.5237,-8.5074,-8.5466,-8.545,-8.545,-8.5638,-8.5641,-8.5643,-8.5562,-8.5555,-8.5548,-8.5542,-8.5713,-8.5725,-8.5738,-8.595,0,0,-8.5778,-8.5784,0,0,0,0,0,0,0,0,-8.5228,-8.5252,-8.545,-8.5451,-8.5452,-8.5571,-8.5562,-8.5746,-8.5563,-8.5519,-8.5547,-8.5539,-8.5675,-8.5691,-8.5737,-8.5959,-8.5966,-8.5779,-8.5787,-8.5793,-8.5796,0,0,0,0,0,0,0,-8.5216,-8.5244,-8.5534,-8.5453,-8.5454,-8.5433,-8.545,-8.5596,-8.5632,-8.5522,-8.5517,-8.5539,-8.5674,-8.5725,-8.5741,-8.5968,-8.5779,-8.579,-8.5798,-8.5804,-8.6374,-8.6381,0,0,0,0,0,0,-8.5205,-8.5235,-8.5529,-8.5539,-8.5321,-8.5446,-8.5465,-8.5539,-8.563,-8.5637,-8.5544,-8.5534,-8.5706,-8.5725,-8.5746,-8.6002,-8.5793,-8.5805,-8.5812,-8.6366,-8.6375,-8.6383,0,0,0,0,0,0,-8.5196,-8.5232,-8.5522,-8.5386,-8.5421,-8.546,-8.5544,-8.5546,-8.5597,-8.5646,-8.5652,-8.559,-8.5701,-8.5728,-8.5901,-8.6007,-8.5811,-8.5823,-8.6358,-8.6369,-8.6379,-8.6514,0,0,0,0,0,0,-8.5185,-8.5229,-8.5311,-8.5388,-8.5429,-8.5675,-8.555,-8.5554,-8.562,-8.5609,-8.5691,-8.5698,-8.5698,-8.5882,-8.5914,-8.6021,-8.5833,-8.6348,-8.6363,-8.6376,-8.6501,-8.6529,-8.6553,0,0,0,0,0,-8.5171,-8.5341,-8.5316,-8.5352,-8.5532,-8.5681,-8.5704,-8.5703,-8.5629,-8.5711,-8.5743,-8.5695,-8.599,-8.59,-8.5936,-8.6048,-8.6342,-8.6359,-8.6375,-8.6489,-8.6523,-8.6552,0,0,0,0,0,0,-8.5274,-8.5351,-8.5323,-8.5524,-8.5597,-8.5667,-8.5771,-8.5739,-8.5833,-8.5818,-8.5811,-8.583,-8.601,-8.6046,-8.5945,-8.6259,-8.6154,-8.6179,-8.6229,-8.6262,-8.6287,-8.6275,-8.5843,0,0,0,0,0,-8.532,-8.5436,-8.5496,-8.5667,-8.5705,-8.5732,-8.5797,-8.579,-8.5864,-8.5894,-8.5939,-8.6012,-8.6121,-8.6193,-8.6296,-8.6505,-8.6522,-8.66,-8.6626,-8.6647,-8.6668,-8.6783,-8.6818,-8.6437,-8.6437,-8.6437,0,0,-8.5416,-8.5472,-8.5546,-8.5689,-8.5745,-8.5865,-8.5759,-8.5889,-8.5978,-8.5914,-8.6081,-8.6116,-8.6197,-8.6389,-8.6476,-8.6425,-8.6777,-8.6668,-8.6684,-8.6695,-8.6803,-8.6839,-8.6871,-8.6448,-8.6446,-8.6445,0,0,-8.5653,-8.5707,-8.5856,-8.5915,-8.6001,-8.6018,-8.6053,-8.6129,-8.6151,-8.6318,-8.6273,-8.6377,-8.6565,-8.6626,-8.6681,-8.6942,-8.6902,-8.6975,-8.7111,-8.7223,-8.7253,-8.7279,-8.7374,-8.7407,-8.6996,-8.6997,-8.6997,0,-8.5761,-8.5941,-8.5936,-8.6072,-8.6136,-8.6085,-8.6236,-8.6292,-8.6407,-8.6453,-8.6394,-8.663,-8.6681,-8.6887,-8.6951,-8.6997,-8.7038,-8.6966,-8.7249,-8.7276,-8.73,-8.739,-8.7425,-8.7005,-8.7004,-8.7003,-8.7002,0,-8.607,-8.6196,-8.6305,-8.642,-8.6497,-8.6639,-8.6656,-8.6734,-8.6719,-8.6742,-8.6914,-8.6973,-8.7088,-8.7136,-8.7123,-8.7341,-8.7307,-8.7249,-8.7144,-8.7345,-8.743,-8.7464,-8.7017,-8.7014,-8.7012,-8.7009,0,0,-8.6377,-8.6488,-8.6529,-8.6581,-8.6673,-8.6769,-8.6908,-8.7022,-8.709,-8.7171,-8.7288,-8.7449,-8.7396,-8.7459,-8.7452,-8.755,-8.7754,-8.748,-8.7481,-8.753,-8.7999,-8.8044,-8.8084,-8.7727,-8.7734,-8.7739,-8.7993,0,-8.6621,-8.6868,-8.6869,-8.7096,-8.7212,-8.7165,-8.7287,-8.7356,-8.7381,-8.7482,-8.7509,-8.7624,-8.7545,-8.7583,-8.7677,-8.7709,-8.7848,-8.7691,-8.7836,-8.7842,-8.7819,-8.8127,-8.8174,-8.8411,-8.8026,-8.8031,-8.8035,0,-8.694,-8.7033,-8.7273,-8.7349,-8.7398,-8.7508,-8.7613,-8.771,-8.7787,-8.7798,-8.787,-8.7848,-8.7989,-8.7879,-8.8074,-8.7967,-8.8026,-8.8051,-8.806,-8.8075,-8.7952,-8.8152,-8.8487,-8.8523,-8.8087,-8.8083,-8.8079,0,-8.7141,-8.7327,-8.7495,-8.754,-8.7633,-8.7711,-8.7753,-8.7824,-8.7893,-8.7984,-8.8029,-8.8134,-8.8193,-8.8275,-8.8282,-8.8201,-8.8479,-8.8369,-8.8492,-8.8492,-8.8554,-8.855,-8.8905,-8.859,-8.859,-8.8589,-8.8588,0,-8.7415,-8.7564,-8.7587,-8.769,-8.7855,-8.7854,-8.8017,-8.8051,-8.8115,-8.8224,-8.8189,-8.8291,-8.8294,-8.8398,-8.8404,-8.8566,-8.8592,-8.8604,-8.8605,-8.8609,-8.8608,-8.8649,-8.8633,-8.8598,-8.8596,-8.8594,-8.8593,0,-8.7669,-8.769,-8.787,-8.7944,-8.7965,-8.8084,-8.8146,-8.8245,-8.8266,-8.8404,-8.8437,-8.8471,-8.8592,-8.8607,-8.8748,-8.8752,-8.8947,-8.8928,-8.8922,-8.8919,-8.9042,-8.9031,-8.9437,-8.949,-8.9139,-8.9143,-8.9146,0,-8.7843,-8.7957,-8.8043,-8.8114,-8.8161,-8.8276,-8.8346,-8.8349,-8.8424,-8.8521,-8.8608,-8.8726,-8.8821,-8.9017,-8.9053,-8.9161,-8.9146,-8.9281,-8.9162,-8.9163,-8.915,-8.9144,-8.9155,-8.9304,-8.9308,-8.9311,-8.9313,0,-8.815,-8.8156,-8.8259,-8.8368,-8.8454,-8.8539,-8.8619,-8.8679,-8.8691,-8.8777,-8.8902,-8.8975,-8.912,-8.9238,-8.9345,-8.9386,-8.9353,-8.935,-8.9385,-8.9391,-8.9383,-8.9391,-8.8986,-8.9341,-8.9339,-8.9336,-8.9335,-8.9334,-8.8371,-8.847,-8.8547,-8.8664,-8.8725,-8.8801,-8.8897,-8.8932,-8.9036,-8.9156,-8.915,-8.9288,-8.9362,-8.9502,-8.9552,-8.9659,-8.9614,-8.9664,-8.9677,-8.9689,-8.9703,-8.9365,-8.9678,-8.9677,-8.9676,-8.9676,-8.9675,0,-8.8677,-8.8725,-8.8833,-8.8947,-8.9039,-8.9,-8.9087,-8.9166,-8.9289,-8.9362,-8.9456,-8.96,-8.9714,-8.976,-8.9872,-8.9949,-8.9936,-8.9978,-8.9973,-8.9984,-8.9735,-8.9695,-8.9987,-8.9987,-8.9987,-8.9987,-8.9987,-8.9987,-8.8848,-8.9015,-8.903,-8.9226,-8.9272,-8.9408,-8.9461,-8.953,-8.9589,-8.9752,-8.9847,-8.9877,-8.9939,-9.0055,-9.0158,-9.0169,-9.0212,-9.0261,-9.0265,-9.0032,-9.0001,-8.9971,-8.9933,-9.027,-9.0271,-9.0505,-9.0507,-9.0509]}]]